[[{"header":{"parameterUnit":"m.s-1","parameterCategory":1,"la1":30.2991,"la2":30.254,"lo1":-89.0895,"lo2":-89.0444,"dy":0.0017,"dx":0.0017,"nx":28,"ny":28,"refTime":"2025-07-17T21:00:00:Z","depth":0,"parameterNumber":2,"parameterNumberName":"U-component_of_WINDS"},"data":[0,0,0,0,0,0,0,0,0,0,0,0,0,0,0,0,0,0,0,0,0,0,0,0,0,0,0,0,0,0,0,0,0,0,0,0,0,0,0,0,0,0,0,0,0,0,0,0,0,0,0,0,0,0,0,0,0,0,4.1485,4.1486,0,4.1491,4.1491,4.1491,4.1394,4.1392,4.1389,4.1386,4.139,4.1393,4.1395,0,0,0,0,0,0,0,0,0,0,0,0,0,4.139,4.1393,4.1485,4.1486,4.1486,4.1491,4.1491,4.1491,4.1395,4.1391,4.1388,4.1385,4.1389,4.1392,4.1395,0,0,0,0,0,0,0,0,0,0,0,0,0,4.1417,4.1393,4.1485,4.1438,4.1434,4.1491,4.1491,4.1491,4.1395,4.1391,4.1387,4.1384,4.1388,4.1392,4.1396,4.1497,0,0,4.1407,4.1409,0,0,0,0,0,0,0,0,4.1416,4.1421,4.1445,4.1442,4.1437,4.1438,4.1458,4.1493,4.1396,4.141,4.1386,4.1382,4.1409,4.1411,4.142,4.1497,4.1497,4.1408,4.141,4.1411,4.1413,0,0,0,0,0,0,0,4.1414,4.142,4.1487,4.1446,4.1441,4.1416,4.1416,4.1464,4.1431,4.1408,4.1401,4.1404,4.1406,4.1417,4.142,4.1497,4.1407,4.1411,4.1413,4.1415,4.1655,4.1659,0,0,0,0,0,0,4.1419,4.1419,4.1487,4.1487,4.1417,4.1421,4.142,4.1441,4.143,4.1425,4.1407,4.1399,4.1412,4.1415,4.1419,4.1535,4.1411,4.1415,4.1417,4.1651,4.1656,4.1661,0,0,0,0,0,0,4.1417,4.1426,4.1487,4.1451,4.1457,4.1427,4.1451,4.1444,4.1454,4.1429,4.1423,4.1424,4.1409,4.1414,4.1478,4.1534,4.1417,4.142,4.1646,4.1653,4.1659,4.1768,0,0,0,0,0,0,4.1415,4.1426,4.1464,4.1453,4.146,4.1546,4.1455,4.1447,4.1461,4.1451,4.1444,4.1439,4.1407,4.1473,4.1482,4.1537,4.1423,4.1641,4.1649,4.1657,4.1759,4.1777,4.1793,0,0,0,0,0,4.1412,4.1495,4.1467,4.1476,4.1507,4.155,4.1553,4.1515,4.1466,4.1504,4.1488,4.1439,4.1527,4.148,4.1489,4.1546,4.1637,4.1647,4.1656,4.1752,4.1774,4.1792,0,0,0,0,0,0,4.1513,4.1493,4.1461,4.1544,4.1549,4.1533,4.158,4.154,4.1559,4.1549,4.1501,4.15,4.1571,4.1566,4.1514,4.1643,4.1573,4.1585,4.1643,4.1664,4.168,4.1678,4.1426,0,0,0,0,0,4.1546,4.1582,4.1562,4.1637,4.1641,4.1611,4.1628,4.1598,4.1602,4.1603,4.1592,4.1597,4.1625,4.1645,4.167,4.1759,4.1755,4.1803,4.182,4.1834,4.1843,4.1887,4.1908,4.1691,4.1691,4.1691,0,0,4.1612,4.1605,4.1631,4.1657,4.1658,4.1695,4.1613,4.1657,4.1684,4.161,4.1668,4.1661,4.1663,4.174,4.1773,4.1737,4.1902,4.1846,4.1857,4.1858,4.1899,4.192,4.1938,4.1698,4.1696,4.1695,0,0,4.1751,4.1751,4.1811,4.1814,4.1817,4.1796,4.1811,4.1802,4.1793,4.1852,4.1796,4.1828,4.1879,4.1882,4.1891,4.2032,4.1987,4.2042,4.2127,4.2172,4.2188,4.2203,4.2251,4.2269,4.2052,4.2053,4.2053,0,4.1832,4.1887,4.1848,4.1895,4.1907,4.1843,4.1903,4.1908,4.1918,4.1928,4.1889,4.195,4.1947,4.2022,4.2057,4.2067,4.2081,4.204,4.219,4.2204,4.2217,4.2262,4.228,4.2059,4.2058,4.2058,4.2057,0,4.1986,4.2025,4.2074,4.2086,4.2104,4.2158,4.2125,4.2149,4.2118,4.2101,4.2161,4.2156,4.2178,4.2195,4.2165,4.2266,4.2243,4.2198,4.2126,4.2245,4.2285,4.2303,4.2068,4.2066,4.2064,4.2062,0,0,4.2186,4.2176,4.2194,4.2198,4.2196,4.2225,4.2277,4.2298,4.2318,4.2328,4.2368,4.2413,4.2371,4.238,4.2351,4.2391,4.2499,4.234,4.2339,4.2367,4.2606,4.2637,4.2658,4.2471,4.2474,4.2477,4.2605,0,4.2318,4.2403,4.237,4.2457,4.2492,4.2432,4.2476,4.248,4.2466,4.2493,4.2478,4.2509,4.2453,4.2458,4.2494,4.2479,4.2546,4.2469,4.2505,4.2507,4.2502,4.268,4.2713,4.2833,4.2621,4.2624,4.2626,0,4.2483,4.2499,4.2591,4.2582,4.2595,4.2636,4.2652,4.268,4.2682,4.2669,4.2681,4.2643,4.2691,4.2624,4.2688,4.2636,4.265,4.2645,4.2648,4.2647,4.257,4.2679,4.2871,4.2888,4.2651,4.2649,4.2647,0,4.2615,4.2661,4.272,4.2726,4.2719,4.2748,4.2746,4.2745,4.276,4.2775,4.2784,4.2805,4.2816,4.2833,4.2801,4.2755,4.2869,4.2799,4.2857,4.2858,4.288,4.2879,4.3073,4.2897,4.2896,4.2896,4.2896,0,4.2763,4.282,4.2779,4.2816,4.2878,4.2839,4.2902,4.2893,4.2893,4.2926,4.2877,4.2909,4.2868,4.2896,4.2872,4.2927,4.2934,4.2923,4.2915,4.2925,4.2926,4.293,4.2919,4.2901,4.29,4.2899,4.2898,0,4.2919,4.2894,4.2955,4.2944,4.2942,4.2988,4.2977,4.301,4.2994,4.3036,4.3044,4.3018,4.3049,4.302,4.3049,4.3033,4.3106,4.3088,4.3105,4.3098,4.3156,4.315,4.3357,4.3381,4.3193,4.3195,4.3196,0,4.3013,4.3056,4.3049,4.3068,4.3069,4.31,4.3115,4.3079,4.3097,4.3104,4.3135,4.3162,4.318,4.3231,4.3214,4.3236,4.3216,4.3287,4.3218,4.3226,4.3212,4.3208,4.3211,4.33,4.3302,4.3304,4.3305,0,4.3182,4.3167,4.3191,4.3211,4.323,4.3244,4.3254,4.3272,4.3235,4.3258,4.3288,4.3303,4.3332,4.3358,4.3375,4.3372,4.3332,4.3328,4.3342,4.335,4.3356,4.3349,4.3138,4.3322,4.332,4.3319,4.3318,4.3318,4.3306,4.3341,4.3341,4.3369,4.3373,4.3383,4.3413,4.3401,4.3425,4.3446,4.3425,4.3461,4.3462,4.3481,4.3483,4.351,4.348,4.3501,4.3506,4.351,4.3517,4.3356,4.3514,4.3513,4.3513,4.3513,4.3512,0,4.3469,4.3466,4.3493,4.3508,4.353,4.3493,4.3502,4.3522,4.3554,4.356,4.3579,4.3614,4.3639,4.3625,4.3647,4.3671,4.3653,4.3678,4.3673,4.3672,4.3545,4.3529,4.3692,4.3692,4.3692,4.3691,4.3691,4.3691,4.3555,4.361,4.3596,4.3653,4.365,4.3685,4.3693,4.3702,4.3705,4.3746,4.3767,4.3758,4.3755,4.3776,4.3797,4.3793,4.3801,4.3831,4.382,4.37,4.3682,4.3665,4.3649,4.3835,4.3835,4.3944,4.3945,4.3946]},{"header":{"parameterUnit":"m.s-1","parameterCategory":1,"la1":30.2991,"la2":30.254,"lo1":-89.0895,"lo2":-89.0444,"dy":0.0017,"dx":0.0017,"nx":28,"ny":28,"refTime":"2025-07-17T21:00:00:Z","depth":0,"parameterNumber":3,"parameterNumberName":"V-component_of_WINDS"},"data":[0,0,0,0,0,0,0,0,0,0,0,0,0,0,0,0,0,0,0,0,0,0,0,0,0,0,0,0,0,0,0,0,0,0,0,0,0,0,0,0,0,0,0,0,0,0,0,0,0,0,0,0,0,0,0,0,0,0,3.3881,3.3882,0,3.3984,3.3985,3.3986,3.4038,3.4038,3.4038,3.4038,3.4138,3.414,3.4143,0,0,0,0,0,0,0,0,0,0,0,0,0,3.3722,3.3725,3.3881,3.3882,3.3884,3.3984,3.3985,3.3987,3.4038,3.4038,3.4038,3.4039,3.4137,3.414,3.4143,0,0,0,0,0,0,0,0,0,0,0,0,0,3.3805,3.3726,3.3881,3.3922,3.3926,3.3984,3.3985,3.3987,3.4038,3.4038,3.4038,3.4039,3.4136,3.414,3.4143,3.4166,0,0,3.4155,3.4157,0,0,0,0,0,0,0,0,3.38,3.381,3.3914,3.3919,3.3924,3.3999,3.3966,3.4047,3.4038,3.3996,3.4038,3.4039,3.4091,3.4098,3.4117,3.4171,3.4175,3.4156,3.4158,3.416,3.4161,0,0,0,0,0,0,0,3.3794,3.3806,3.3922,3.3916,3.3922,3.3933,3.3944,3.3981,3.4041,3.3999,3.4003,3.4015,3.4094,3.4114,3.412,3.4176,3.4156,3.4159,3.4161,3.4163,3.4253,3.4253,0,0,0,0,0,0,3.3783,3.3801,3.3918,3.3925,3.3861,3.3935,3.3949,3.3975,3.4041,3.4052,3.4015,3.4017,3.4107,3.4116,3.4124,3.4155,3.416,3.4163,3.4166,3.4253,3.4253,3.4253,0,0,0,0,0,0,3.3779,3.3793,3.3914,3.3864,3.3881,3.3938,3.3967,3.3977,3.3997,3.4053,3.4063,3.4025,3.4107,3.4118,3.4156,3.4159,3.4165,3.4169,3.4253,3.4253,3.4253,3.4217,0,0,0,0,0,0,3.3774,3.3791,3.3802,3.3864,3.3883,3.3946,3.3967,3.3978,3.4004,3.4008,3.4065,3.4075,3.4108,3.4149,3.4159,3.4164,3.4172,3.4253,3.4253,3.4253,3.4218,3.4216,3.4214,0,0,0,0,0,3.3769,3.3786,3.3802,3.3816,3.3898,3.3946,3.3957,3.3997,3.4004,3.4014,3.4051,3.4073,3.4157,3.4153,3.4164,3.4171,3.4252,3.4253,3.4253,3.4219,3.4216,3.4214,0,0,0,0,0,0,3.3721,3.3795,3.3814,3.3853,3.3893,3.3955,3.3969,3.3993,3.403,3.4032,3.4078,3.409,3.4123,3.415,3.4145,3.4196,3.4207,3.4209,3.4177,3.4175,3.4173,3.4165,3.4175,0,0,0,0,0,3.3715,3.375,3.3813,3.3841,3.386,3.3911,3.3933,3.3961,3.4004,3.402,3.4059,3.4098,3.4133,3.4155,3.4191,3.4222,3.4235,3.4232,3.423,3.4228,3.4229,3.4247,3.4246,3.4253,3.4253,3.4253,0,0,3.3703,3.3748,3.3767,3.3832,3.3867,3.39,3.3925,3.3959,3.3984,3.4025,3.4063,3.4093,3.4139,3.4173,3.419,3.4197,3.423,3.4228,3.4226,3.4228,3.4247,3.4246,3.4246,3.4253,3.4253,3.4253,0,0,3.3699,3.3737,3.3765,3.3799,3.3852,3.3885,3.3892,3.395,3.3972,3.4012,3.4043,3.4072,3.4132,3.4164,3.4187,3.4194,3.4216,3.4204,3.4193,3.421,3.421,3.4209,3.4212,3.4212,3.4206,3.4206,3.4205,0,3.3677,3.3731,3.3775,3.3808,3.3835,3.3876,3.3903,3.3934,3.3994,3.4011,3.4018,3.4094,3.4128,3.417,3.4172,3.419,3.4198,3.4198,3.4206,3.4207,3.4207,3.421,3.421,3.4204,3.4204,3.4204,3.4204,0,3.3701,3.3737,3.3753,3.3813,3.3842,3.3871,3.3918,3.3941,3.3966,3.3998,3.4037,3.4079,3.4124,3.4136,3.4159,3.4181,3.4184,3.4198,3.421,3.4204,3.4207,3.4208,3.4201,3.4202,3.4202,3.4203,0,0,3.367,3.3754,3.3759,3.3787,3.3848,3.3875,3.3906,3.3952,3.3971,3.401,3.4037,3.4086,3.41,3.4127,3.4154,3.4169,3.4172,3.4182,3.4183,3.4178,3.4197,3.4186,3.4187,3.4186,3.4187,3.4187,3.4193,0,3.3674,3.3734,3.3774,3.3817,3.3851,3.389,3.3916,3.3955,3.3986,3.4017,3.405,3.4084,3.41,3.4117,3.4133,3.4168,3.4176,3.4168,3.4209,3.421,3.4197,3.4189,3.4177,3.4181,3.4195,3.4195,3.4195,0,3.3687,3.3728,3.3775,3.3832,3.3848,3.3871,3.3916,3.3946,3.399,3.4011,3.4042,3.407,3.4102,3.4111,3.4155,3.4148,3.4168,3.4187,3.4188,3.4194,3.4203,3.4194,3.4184,3.4184,3.4198,3.4198,3.4197,0,3.3659,3.3726,3.3763,3.3785,3.3853,3.3868,3.3896,3.3941,3.3966,3.4004,3.4021,3.4061,3.4083,3.4114,3.4151,3.4154,3.4191,3.4203,3.4208,3.4207,3.4215,3.4214,3.4208,3.4227,3.4227,3.4227,3.4227,0,3.366,3.3687,3.3752,3.3774,3.3805,3.385,3.3879,3.391,3.3949,3.3977,3.4012,3.4037,3.4085,3.4115,3.4145,3.4177,3.4186,3.4203,3.421,3.42,3.4198,3.4213,3.4214,3.4227,3.4227,3.4227,3.4227,0,3.3634,3.3679,3.3722,3.3783,3.3798,3.3818,3.3869,3.3892,3.3924,3.3959,3.3969,3.402,3.4057,3.4098,3.4148,3.4168,3.4198,3.4209,3.4184,3.4188,3.4191,3.419,3.4195,3.4197,3.4214,3.4214,3.4214,0,3.3632,3.3654,3.3718,3.374,3.3768,3.3803,3.3829,3.3874,3.3899,3.3951,3.3967,3.4007,3.4042,3.41,3.4139,3.4178,3.419,3.4189,3.4195,3.4184,3.4189,3.4188,3.419,3.4186,3.4186,3.4186,3.4185,0,3.3623,3.3644,3.3681,3.3726,3.3757,3.3794,3.3832,3.3847,3.3899,3.3925,3.3965,3.3992,3.4044,3.4084,3.4127,3.4154,3.4178,3.4183,3.4186,3.4176,3.416,3.4169,3.4178,3.4182,3.4183,3.4183,3.4183,3.4183,3.3609,3.363,3.3679,3.3719,3.3752,3.3787,3.3811,3.3847,3.3882,3.393,3.3953,3.3993,3.4035,3.4097,3.4123,3.4153,3.416,3.4165,3.4166,3.4167,3.4164,3.4156,3.4161,3.4161,3.4161,3.4161,3.4161,0,3.3601,3.3635,3.3671,3.3724,3.3755,3.3777,3.382,3.3844,3.3879,3.3918,3.3952,3.3997,3.4035,3.4078,3.4119,3.4134,3.4146,3.4143,3.4143,3.4148,3.4155,3.4148,3.4133,3.4133,3.4133,3.4133,3.4133,3.4133,3.3601,3.3639,3.3665,3.3719,3.3751,3.3792,3.3814,3.3846,3.3877,3.3927,3.396,3.3988,3.4028,3.4072,3.4107,3.4119,3.4132,3.4126,3.414,3.4146,3.4148,3.415,3.4144,3.4128,3.4128,3.4131,3.4131,3.4131]}]]